Temperature
17 17 17 17 17 17 17 17 18 18 18 18 17 17 17 17 17 17 17 17 17 18 18 17 18 18 18 18 18 18 18 18 17 17 18 18 18 18 18 18 18 18 18
17 17 17 17 17 17 17 17 17 17 17 17 17 17 17 17 17 17 17 17 17 17 17 17 17 18 18 18 17 17 17 17 17 17 17 18 18 18 18 18 18 18 18
17 17 17 17 17 17 17 17 17 17 17 17 17 17 17 17 17 17 17 17 17 17 17 17 17 17 17 17 17 17 17 17 17 17 17 17 18 18 18 18 18 18 18
17 17 17 17 17 17 17 17 17 17 17 17 17 17 17 17 16 16 17 17 17 17 17 17 17 17 17 17 17 17 17 17 17 17 17 17 17 18 18 18 18 18 18
17 17 17 17 17 17 17 17 17 17 17 17 17 17 16 16 16 16 16 16 16 17 17 17 17 17 17 17 17 17 17 17 17 17 17 17 17 17 18 18 18 18 18
17 17 17 17 17 17 17 17 17 17 17 17 16 16 16 16 16 16 16 16 16 16 17 17 17 17 17 17 17 17 17 17 17 17 17 17 17 17 18 18 18 18 18
17 17 17 17 17 17 17 17 17 17 17 17 16 16 16 16 16 16 16 16 16 16 16 17 17 17 17 17 17 17 17 17 17 17 17 17 17 17 17 17 17 18 18
17 17 17 17 17 17 17 17 17 17 16 16 16 16 16 16 16 16 16 16 16 16 16 16 17 17 17 17 17 17 16 16 17 17 17 17 17 17 17 17 17 17 18
17 17 17 17 17 17 17 17 16 16 16 16 16 16 16 16 16 16 16 16 16 16 16 16 16 17 16 16 16 16 16 16 17 17 17 17 17 17 17 17 17 17 17
17 17 17 17 17 17 17 17 16 16 16 16 16 16 16 16 16 16 16 16 16 16 16 16 16 16 16 16 16 16 16 16 16 16 16 16 16 17 17 17 17 17 17
17 17 17 17 17 17 17 16 16 16 16 16 16 16 16 16 16 16 16 16 16 16 16 16 16 16 16 16 16 16 16 16 16 16 16 16 16 16 16 17 17 17 17
17 17 17 17 17 17 17 16 16 16 16 16 16 16 16 16 16 16 16 16 16 16 16 16 16 16 16 16 16 16 16 16 16 16 16 16 16 16 16 16 16 17 17
18 17 17 17 17 17 17 17 17 16 16 16 16 16 16 16 16 16 16 16 16 16 16 16 16 16 16 16 16 16 16 16 16 16 16 16 16 16 16 16 16 16 16
18 18 17 17 17 17 17 17 17 16 16 16 16 16 16 16 16 16 16 16 16 16 16 16 16 16 16 16 16 16 16 16 16 16 16 16 16 16 16 16 16 16 16
18 18 18 17 17 17 17 17 17 17 16 16 16 16 16 16 16 16 16 16 16 16 16 16 16 16 16 16 16 16 16 16 16 16 16 15 15 15 15 15 16 16 16
18 18 18 18 17 17 17 17 17 17 16 16 16 16 16 16 16 16 16 16 16 16 16 16 16 16 16 16 16 16 16 15 15 15 15 15 15 15 15 15 15 15 15
18 18 18 18 17 17 17 17 17 17 16 16 16 16 16 16 16 16 16 16 16 16 16 16 16 16 16 16 16 15 15 15 15 15 15 15 15 15 15 15 15 15 15
18 18 18 18 17 17 17 17 17 17 16 16 16 16 16 16 16 16 16 16 16 16 16 16 16 16 16 16 16 15 15 15 15 15 15 15 15 15 15 15 15 15 15
19 18 18 18 18 17 17 17 17 17 16 16 16 16 16 16 16 16 16 16 16 16 16 16 16 16 16 15 15 15 15 15 15 15 15 15 15 15 15 15 15 15 15
19 18 18 18 17 17 17 17 17 17 16 16 16 16 16 16 16 16 16 16 16 16 16 16 16 16 16 15 15 15 15 15 15 15 15 14 14 14 14 14 14 14 14
19 18 18 18 18 17 17 17 17 17 16 16 16 16 16 16 16 16 16 16 16 16 16 16 16 16 15 15 15 15 15 15 15 15 14 14 14 14 14 14 14 14 14
19 19 18 18 18 17 17 17 17 17 17 16 16 16 16 16 16 16 16 16 16 16 16 16 16 16 15 15 15 15 15 14 14 14 14 14 14 14 14 14 14 14 14
19 19 18 18 18 18 17 17 17 17 17 16 16 16 16 16 16 16 16 16 16 16 16 16 16 15 15 15 15 15 15 14 14 14 14 14 14 14 14 14 14 14 14
19 19 19 18 18 18 17 17 17 17 17 17 16 16 16 16 16 16 16 16 16 16 16 16 15 15 15 15 15 15 15 15 14 14 14 14 14 14 14 13 13 13 13
19 19 19 18 18 18 18 17 17 17 17 17 16 16 16 16 16 16 16 16 16 16 15 15 15 15 15 15 15 15 15 15 14 14 14 13 13 13 13 13 13 13 13
19 19 19 19 18 18 18 18 17 17 17 17 17 17 16 16 16 16 16 16 16 15 15 15 15 15 15 15 15 15 15 14 14 14 14 13 13 13 13 13 13 13 13
Wind_Speed
1 4 9 11 12 13 13 13 13 13 13 13 13 13 13 13 13 12 12 12 12 12 11 11 10 9 9 9 9 9 9 9 9 9 10 10 11 11 10 10 9 8 8
5 7 11 12 13 13 13 13 13 13 13 13 13 13 13 12 12 12 12 11 11 11 10 10 9 9 8 8 8 8 8 8 7 8 9 10 10 10 11 11 10 8 9
7 9 11 13 13 14 13 13 13 13 13 13 12 12 12 12 11 11 11 11 11 10 10 10 9 8 8 8 8 8 8 8 8 8 8 7 9 10 11 11 11 10 10
9 10 11 13 13 13 13 13 13 13 12 12 12 11 11 11 10 10 10 10 10 10 9 9 8 8 7 8 8 8 8 8 8 8 7 7 7 10 10 10 11 11 10
9 10 12 13 13 13 13 13 12 12 12 11 11 11 11 10 10 10 10 9 9 9 8 8 8 8 7 7 8 9 9 9 10 9 8 8 7 9 10 10 10 10 10
8 10 12 13 13 12 12 12 11 11 11 11 11 11 10 10 10 9 9 9 8 8 8 7 7 7 7 7 8 8 9 10 10 9 8 7 7 9 10 10 10 10 10
7 9 12 13 13 12 11 11 10 10 10 9 9 9 9 9 9 8 8 8 7 7 7 7 6 6 6 7 8 9 10 10 9 8 7 7 8 9 9 9 10 10 10
8 9 10 12 12 11 10 10 9 8 8 7 7 7 7 7 7 7 7 7 7 6 6 6 6 6 6 7 8 8 9 9 8 8 7 7 8 9 10 9 9 9 9
8 8 8 9 10 10 9 9 7 7 6 5 5 5 4 4 5 5 5 5 5 5 5 5 5 5 5 6 7 8 9 10 9 7 7 7 8 9 9 9 9 9 9
6 6 7 7 8 7 7 7 6 5 4 4 3 2 2 2 2 3 3 3 4 3 4 4 5 5 6 6 6 7 8 9 8 7 6 6 8 8 8 8 8 8 8
6 4 5 6 6 6 6 5 4 3 3 3 2 1 1 0 1 0 1 1 2 3 4 4 5 6 6 6 6 6 7 7 7 6 5 7 8 8 8 8 8 7 7
6 5 4 5 6 6 4 4 2 1 2 2 2 2 1 1 1 0 0 2 3 4 4 5 5 6 6 6 6 6 6 6 7 5 5 8 8 8 8 8 8 7 7
6 6 6 6 6 5 3 4 3 2 2 3 3 2 2 2 2 2 2 3 4 4 5 6 5 5 5 5 5 5 6 6 6 5 6 8 8 8 8 8 8 8 8
6 6 6 6 5 5 5 4 3 3 4 4 5 4 4 3 2 2 2 2 3 4 4 4 4 5 6 6 6 6 6 6 6 5 6 8 8 8 8 8 8 8 8
6 6 6 6 5 5 5 4 4 4 4 5 7 6 5 4 2 2 3 3 4 4 4 4 5 5 5 6 6 6 5 6 6 6 6 7 7 8 8 8 8 8 8
6 7 6 7 6 6 4 4 4 5 6 8 9 8 7 5 4 4 4 4 4 5 5 5 5 4 3 4 5 5 5 6 6 6 6 7 7 7 8 8 8 9 9
8 8 7 7 7 6 5 5 5 6 7 8 8 10 10 8 7 6 4 4 5 6 7 7 6 6 4 5 5 4 5 5 5 5 6 6 6 7 8 8 8 9 9
9 8 7 8 8 6 5 6 6 7 7 7 9 10 10 9 9 8 5 4 6 8 6 4 4 4 4 4 4 4 4 4 5 5 5 5 5 6 7 9 9 10 10
10 9 7 7 7 6 5 5 6 6 6 6 8 9 9 10 10 9 6 5 7 7 5 4 4 3 4 4 3 4 4 4 4 6 5 5 6 6 7 8 9 10 11
9 9 8 7 7 6 5 4 4 4 4 5 7 8 9 9 10 9 6 6 8 5 5 4 4 4 3 3 4 5 5 4 4 4 4 6 6 6 7 8 8 9 11
9 9 8 7 6 6 4 4 3 2 1 2 3 6 8 9 9 8 5 5 5 4 4 4 3 5 4 3 4 4 5 5 6 5 4 5 6 7 8 8 8 8 9
9 8 8 8 7 6 4 4 3 3 2 1 2 4 6 7 8 7 5 4 4 4 5 5 4 3 3 3 3 3 3 5 5 5 4 4 4 5 6 7 8 8 9
9 10 10 9 8 7 6 4 4 3 3 2 2 2 2 5 6 7 6 5 4 4 4 4 4 4 3 3 3 3 3 1 2 4 4 4 4 3 3 5 6 7 7
10 9 9 9 8 7 7 7 6 4 3 3 2 1 1 3 4 6 6 6 4 3 3 3 3 3 3 2 2 2 2 3 2 1 3 4 4 3 3 3 4 5 6
10 10 9 9 8 7 7 8 7 5 3 2 1 1 1 1 2 4 5 5 4 3 3 3 4 4 3 2 1 1 3 3 2 3 1 3 4 3 3 2 2 3 5
8 9 9 9 8 7 8 7 8 7 6 4 3 2 1 0 1 2 4 4 4 3 3 3 3 4 3 3 2 2 2 2 1 2 1 1 2 3 3 3 3 3 3
Wind_Direction
80 100 103 101 98 95 95 94 91 90 87 85 84 83 84 83 83 81 81 79 76 73 73 71 70 75 79 78 77 78 80 80 76 74 76 74 71 68 67 68 70 69 72
136 114 107 103 100 98 97 94 91 90 90 88 87 85 84 83 82 80 80 80 78 74 72 70 69 72 72 71 71 73 74 76 79 79 77 73 71 70 69 69 69 70 71
120 111 107 104 103 102 99 96 92 91 90 88 86 84 83 83 81 81 81 79 76 74 70 68 66 67 69 67 65 66 68 73 81 83 77 68 71 72 70 68 68 69 69
119 113 112 107 105 103 101 97 94 93 90 88 86 85 84 84 82 81 82 78 74 72 69 66 63 63 67 64 62 63 68 73 84 81 74 67 73 76 72 68 66 68 67
113 114 117 112 109 107 103 100 97 95 93 90 88 88 87 84 82 80 81 80 75 71 68 65 61 62 65 61 58 61 68 75 89 83 81 74 74 75 73 69 66 66 66
119 121 121 118 113 110 105 102 99 96 94 92 90 89 89 87 85 82 81 79 75 70 67 63 60 58 58 57 57 60 68 79 85 82 83 82 79 78 76 71 70 67 64
126 128 127 123 119 116 112 108 104 99 96 95 95 92 91 89 88 87 83 81 76 70 66 60 56 57 55 54 55 62 72 83 82 85 86 83 83 81 77 71 68 67 63
137 137 135 131 127 124 120 116 112 106 99 97 98 97 96 95 94 93 89 85 77 68 64 56 50 51 49 52 57 67 75 79 85 87 87 83 87 84 78 72 70 67 64
141 142 141 137 134 133 130 126 120 113 107 102 102 104 108 104 99 100 95 87 78 67 57 48 41 40 39 45 52 59 66 71 85 90 86 80 84 83 79 74 71 68 66
146 151 153 152 146 141 142 138 127 114 105 100 103 114 121 117 100 105 99 88 77 65 47 33 28 27 26 34 52 64 68 71 80 84 84 85 85 83 79 73 68 63 61
157 168 166 168 167 164 163 153 132 107 84 66 58 110 124 48 5 73 107 71 55 44 37 29 20 19 23 37 54 76 77 79 88 85 84 89 86 81 77 71 66 60 54
168 180 176 173 177 182 174 148 132 83 51 55 52 71 120 173 280 331 44 24 24 27 24 25 22 18 22 31 49 71 85 91 93 92 93 93 88 83 77 72 64 56 49
171 174 176 175 174 169 147 130 122 90 50 38 30 54 106 95 57 59 37 11 6 7 8 8 18 23 24 46 70 83 93 97 100 96 95 91 86 83 76 71 63 55 47
148 151 159 158 151 146 132 120 112 83 54 38 29 59 93 86 69 59 45 16 15 19 28 30 39 46 47 62 79 89 92 99 99 94 93 88 82 76 71 66 60 54 48
134 134 138 139 135 129 117 109 97 80 63 52 46 48 78 91 81 67 53 40 40 52 62 61 58 57 55 62 75 85 90 96 96 92 86 86 78 71 66 61 57 51 47
134 131 128 123 123 120 110 102 92 84 70 59 50 51 65 81 83 75 59 46 40 51 63 69 68 68 58 66 65 75 88 94 92 87 82 78 70 62 57 53 50 47 43
144 136 129 125 117 111 105 102 96 89 76 61 52 56 64 71 76 76 62 44 44 58 63 64 60 59 56 57 54 61 75 75 84 92 85 74 61 54 51 47 44 40 37
146 141 139 128 118 108 102 100 96 88 77 63 57 57 61 68 77 76 64 47 51 58 59 62 56 56 49 51 52 49 59 64 69 89 91 77 65 54 50 48 45 39 34
148 142 135 131 126 119 111 106 97 89 78 67 62 59 60 65 74 77 68 55 61 59 50 62 54 63 62 54 59 52 45 53 54 78 75 67 65 60 53 47 44 41 35
150 145 142 139 135 125 111 97 80 70 61 61 63 65 65 65 72 77 71 59 62 59 49 54 58 50 59 57 69 55 37 33 43 54 60 62 60 59 56 51 43 35 32
151 150 152 146 146 136 126 121 111 104 75 51 60 69 68 68 72 75 74 62 62 67 61 59 64 54 39 46 69 42 22 29 35 31 37 51 52 55 59 54 51 43 33
164 163 159 158 157 153 149 148 144 139 129 111 59 58 66 69 73 84 82 76 69 74 57 50 60 67 36 39 90 86 36 9 5 15 17 37 37 50 53 56 58 54 45
170 172 169 169 163 158 148 124 100 76 59 49 40 24 39 71 76 83 88 87 78 81 75 60 69 84 67 27 57 121 128 185 323 344 6 18 15 25 33 53 57 51 44
182 176 170 168 164 160 150 144 146 150 163 191 181 187 37 67 78 86 91 94 90 86 87 71 77 86 95 57 17 43 113 147 140 354 340 351 3 19 11 37 44 42 43
177 172 171 166 166 163 157 157 156 161 173 168 150 140 90 33 66 90 97 101 97 91 93 83 77 76 88 101 78 56 62 63 83 126 312 328 344 341 347 359 23 33 32
172 168 165 164 170 167 161 161 164 166 165 159 168 164 169 291 12 87 105 104 104 100 103 100 95 90 87 88 83 80 101 104 106 118 143 295 318 318 339 349 356 2 14
Height
1547 1546 1546 1546 1546 1545 1545 1545 1545 1545 1544 1544 1544 1544 1543 1543 1543 1543 1543 1543 1543 1542 1542 1542 1542 1542 1542 1542 1542 1542 1542 1542 1541 1541 1541 1540 1540 1539 1539 1538 1537 1537 1536
1547 1547 1547 1547 1546 1546 1546 1546 1546 1546 1545 1545 1545 1544 1544 1544 1544 1543 1543 1543 1543 1543 1543 1542 1542 1542 1542 1542 1543 1543 1543 1542 1542 1542 1542 1541 1541 1540 1540 1539 1538 1538 1537
1547 1548 1548 1547 1547 1547 1547 1547 1547 1546 1546 1546 1545 1545 1545 1545 1544 1544 1544 1544 1543 1543 1543 1543 1543 1543 1543 1543 1543 1543 1543 1543 1543 1543 1543 1542 1542 1541 1541 1540 1539 1539 1538
1548 1548 1548 1548 1548 1548 1548 1548 1548 1547 1547 1547 1546 1546 1546 1545 1545 1544 1544 1544 1544 1543 1543 1543 1543 1543 1543 1543 1544 1544 1544 1544 1544 1544 1544 1543 1543 1542 1542 1541 1540 1540 1539
1549 1549 1549 1549 1549 1549 1549 1549 1549 1549 1548 1548 1547 1547 1546 1546 1545 1545 1545 1544 1544 1544 1544 1544 1543 1543 1543 1544 1544 1545 1545 1545 1545 1545 1545 1544 1544 1544 1543 1542 1541 1541 1540
1550 1550 1551 1551 1551 1551 1551 1550 1550 1550 1549 1549 1548 1548 1548 1547 1546 1546 1546 1545 1545 1545 1544 1544 1544 1544 1544 1545 1545 1546 1546 1546 1546 1546 1545 1545 1545 1545 1544 1543 1543 1542 1541
1551 1552 1552 1552 1552 1552 1552 1552 1551 1551 1551 1550 1550 1549 1549 1548 1548 1547 1547 1546 1546 1546 1545 1545 1545 1545 1545 1546 1546 1546 1546 1547 1547 1547 1547 1546 1546 1546 1545 1544 1544 1543 1543
1553 1553 1553 1554 1554 1554 1554 1553 1553 1553 1552 1552 1552 1551 1550 1550 1549 1549 1548 1548 1547 1547 1547 1547 1546 1546 1546 1547 1547 1547 1548 1548 1548 1548 1547 1547 1547 1547 1546 1546 1545 1544 1544
1555 1555 1555 1555 1556 1556 1555 1555 1555 1555 1554 1554 1553 1553 1552 1551 1551 1550 1550 1549 1549 1548 1548 1548 1548 1548 1548 1548 1548 1548 1548 1548 1548 1548 1548 1548 1548 1548 1547 1547 1546 1545 1545
1556 1557 1557 1557 1557 1557 1557 1557 1557 1556 1556 1556 1555 1555 1554 1553 1552 1552 1551 1551 1550 1550 1550 1550 1549 1549 1549 1549 1549 1549 1549 1550 1549 1549 1549 1549 1549 1548 1548 1548 1547 1546 1546
1557 1558 1558 1558 1559 1559 1559 1559 1558 1558 1558 1557 1557 1556 1555 1555 1554 1553 1553 1552 1552 1552 1552 1551 1551 1551 1551 1550 1550 1550 1550 1551 1550 1550 1550 1550 1550 1549 1549 1548 1548 1547 1546
1558 1559 1559 1560 1560 1560 1560 1560 1560 1559 1559 1558 1558 1557 1557 1556 1555 1555 1554 1554 1554 1553 1553 1553 1552 1552 1552 1552 1552 1552 1552 1552 1552 1551 1551 1551 1550 1550 1549 1549 1548 1548 1547
1558 1559 1560 1560 1561 1561 1561 1561 1561 1560 1560 1560 1559 1559 1558 1558 1557 1556 1556 1555 1555 1554 1554 1554 1553 1553 1553 1553 1553 1553 1553 1553 1553 1553 1552 1552 1551 1551 1550 1549 1549 1548 1547
1559 1560 1560 1561 1562 1562 1562 1562 1562 1562 1561 1561 1560 1560 1559 1559 1558 1558 1557 1556 1556 1555 1555 1554 1554 1554 1554 1554 1554 1554 1554 1554 1554 1554 1554 1553 1552 1552 1551 1550 1549 1549 1548
1559 1560 1561 1562 1562 1563 1563 1563 1563 1563 1562 1562 1561 1561 1560 1560 1559 1559 1558 1557 1557 1556 1556 1556 1555 1555 1555 1555 1555 1555 1556 1556 1555 1555 1555 1554 1553 1553 1552 1551 1550 1549 1548
1560 1561 1562 1563 1563 1564 1564 1564 1564 1563 1563 1563 1562 1562 1561 1561 1560 1560 1559 1558 1558 1557 1557 1557 1556 1556 1556 1556 1556 1557 1557 1557 1556 1556 1556 1555 1554 1553 1552 1551 1550 1549 1548
1561 1562 1563 1563 1564 1564 1564 1564 1564 1564 1564 1563 1563 1562 1562 1562 1561 1561 1560 1559 1559 1558 1558 1558 1558 1558 1557 1558 1558 1558 1558 1558 1557 1557 1557 1556 1555 1554 1553 1552 1551 1550 1549
1561 1562 1563 1564 1564 1565 1565 1565 1565 1565 1565 1564 1564 1563 1563 1563 1562 1561 1561 1560 1560 1559 1559 1559 1559 1559 1559 1559 1559 1559 1559 1559 1559 1558 1557 1557 1556 1555 1554 1553 1551 1550 1549
1561 1562 1563 1564 1564 1565 1565 1566 1566 1565 1565 1565 1565 1564 1564 1563 1563 1562 1562 1561 1561 1560 1560 1560 1560 1560 1560 1560 1560 1560 1560 1560 1560 1559 1558 1558 1557 1556 1555 1553 1552 1550 1549
1561 1562 1563 1564 1565 1565 1566 1566 1566 1566 1566 1566 1565 1565 1565 1564 1564 1563 1562 1562 1562 1561 1561 1561 1561 1561 1561 1561 1561 1561 1561 1561 1561 1560 1560 1559 1558 1557 1555 1554 1552 1551 1549
1560 1561 1562 1564 1565 1565 1566 1566 1566 1566 1566 1566 1566 1566 1565 1565 1565 1564 1564 1563 1563 1562 1562 1562 1562 1561 1562 1562 1562 1562 1563 1563 1562 1562 1561 1560 1559 1558 1556 1555 1553 1551 1549
1559 1560 1562 1563 1564 1565 1566 1566 1566 1567 1567 1566 1566 1566 1566 1566 1565 1565 1565 1564 1564 1563 1563 1563 1563 1562 1562 1563 1563 1563 1563 1565 1563 1563 1562 1561 1560 1558 1557 1555 1554 1552 1550
1558 1559 1561 1562 1564 1565 1565 1566 1566 1567 1567 1566 1567 1567 1567 1566 1566 1565 1565 1565 1565 1564 1564 1564 1564 1563 1563 1563 1563 1563 1563 1563 1564 1564 1562 1562 1560 1559 1557 1556 1554 1552 1550
1556 1558 1560 1561 1563 1564 1565 1565 1566 1566 1566 1567 1567 1567 1567 1567 1566 1566 1566 1565 1565 1565 1565 1564 1564 1564 1564 1563 1563 1563 1563 1563 1563 1563 1563 1562 1561 1559 1558 1556 1555 1553 1551
1554 1556 1559 1560 1562 1563 1564 1565 1565 1566 1566 1567 1567 1567 1567 1567 1567 1566 1566 1566 1566 1565 1565 1565 1564 1564 1564 1564 1563 1563 1563 1563 1563 1563 1562 1562 1561 1560 1558 1557 1555 1553 1551
1553 1555 1557 1559 1561 1562 1563 1564 1565 1565 1566 1566 1566 1566 1567 1567 1567 1566 1566 1566 1566 1566 1565 1565 1565 1564 1564 1564 1564 1563 1563 1563 1562 1562 1561 1561 1560 1560 1558 1557 1555 1553 1551